Location: Slave Lake
(55.2830°N, 114.7830°W)
Time: 01:36:04
(UTC-06:00)

Amateur Radio Satellites - All Passes

Search period start: 27 June 2016 01:06
Search period end: 28 June 2016 01:06
Location: Slave Lake, 55.2830°N, 114.7830°W

Satellite Date Start Highest point End Downlink Frequencies (MHz)
Time Altitude Azimuth
NANOSAT C BR1 27 Jun 01:10:47 01:14:56 51° 100° (E) 01:19:05 145.865
QB50P1 27 Jun 01:12:38 01:16:50 56° 101° (E) 01:21:02 145.935-145.965
CUBEBUG 1 27 Jun 01:13:24 01:17:13 29° 266° (W) 01:21:02 437.445
ANTELSAT 27 Jun 01:13:24 01:17:42 40° 295° (WNW) 01:22:03 437.575/2403.000
Cosmos 2504 27 Jun 01:15:14 01:23:52 49° 65° (ENE) 01:32:17 435.465 / 435.565
POPSAT HIP 1 27 Jun 01:15:39 01:19:52 58° 102° (ESE) 01:24:05 437.405
AO-85 27 Jun 01:15:52 01:21:05 52° 328° (NNW) 01:25:59 145.980
VELOX 1 27 Jun 01:16:21 01:20:13 29° 265° (W) 01:24:06 145.980
50 SAT 27 Jun 01:16:45 01:19:42 22° 267° (W) 01:22:42 437.505
QB50P2 27 Jun 01:27:28 01:31:45 79° 103° (ESE) 01:36:02 145.880/145.840
POLYITAN 1 27 Jun 01:30:05 01:34:23 80° 105° (ESE) 01:38:40 437.675
DUCHIFAT 1 27 Jun 01:32:17 01:36:32 76° 104° (ESE) 01:40:47 145.980
SWISSCUBE 27 Jun 01:36:37 01:40:41 28° 58° (ENE) 01:44:46 437.505
JAS-2 27 Jun 01:46:23 01:51:48 34° 92° (E) 01:56:42 435.910
ESTCUBE 1 27 Jun 01:47:29 01:49:37 13° 276° (W) 01:51:47 437.505/2401.250
AISAT 27 Jun 01:59:12 02:01:23 13° 274° (W) 02:03:33 437.250
ITUPSAT 1 27 Jun 02:01:26 02:05:52 38° 62° (ENE) 02:10:20 437.325
BEESAT 27 Jun 02:01:39 02:06:04 38° 62° (ENE) 02:10:32 436.000
TISAT 1 27 Jun 02:03:15 02:07:23 61° 258° (WSW) 02:11:32 437.305
TIGRISAT 27 Jun 02:06:22 02:09:32 19° 306° (NW) 02:12:42 435.000
Cosmos 2491 27 Jun 02:08:26 02:17:11 78° 97° (E) 02:25:56 435.465 / 435.565
UKube-1 27 Jun 02:08:52 02:11:28 15° 272° (W) 02:14:04 .
Cosmos 2499 27 Jun 02:10:23 02:11:06 10° 2° (N) 02:11:50 435.465 / 435.565
UNISAT 6 27 Jun 02:11:02 02:13:57 17° 307° (NW) 02:16:54 437.425
SPROUT 27 Jun 02:13:25 02:16:28 19° 271° (W) 02:19:32 437.525
Oscar 19 27 Jun 02:27:06 02:31:33 29° 93° (E) 02:35:58 437.125/150
Gurwin Techsat 1B 27 Jun 02:29:54 02:33:15 17° 85° (E) 02:36:34 435.225
SO-50 27 Jun 02:30:47 02:34:32 24° 242° (WSW) 02:38:11 436.795
BUGSAT 1 27 Jun 02:36:13 02:40:11 55° 292° (WNW) 02:44:12 437.445
NANOSAT C BR1 27 Jun 02:46:57 02:50:28 26° 300° (WNW) 02:53:58 145.865
YUBILEINY 27 Jun 02:48:26 02:55:53 32° 281° (W) 03:03:21 435.215
QB50P1 27 Jun 02:48:55 02:52:21 24° 301° (WNW) 02:55:47 145.935-145.965
POPSAT HIP 1 27 Jun 02:52:00 02:55:23 23° 301° (WNW) 02:58:46 437.405
GONETS M04 27 Jun 02:54:59 02:58:35 13° 24° (NNE) 03:02:09
AO-85 27 Jun 02:58:01 03:02:31 29° 351° (N) 03:06:43 145.980
MOZHAYETS 4 27 Jun 02:58:07 03:01:30 20° 55° (NE) 03:04:55
QB50P2 27 Jun 03:04:08 03:07:06 19° 305° (NW) 03:10:05 145.880/145.840
O/OREOS (USA 219) 27 Jun 03:05:04 03:06:44 12° 97° (E) 03:08:25 437.305
POLYITAN 1 27 Jun 03:06:46 03:09:43 19° 305° (NW) 03:12:41 437.675
DUCHIFAT 1 27 Jun 03:08:48 03:11:47 19° 304° (NW) 03:14:47 145.980
Cosmos 2504 27 Jun 03:08:53 03:17:33 58° 269° (W) 03:26:02 435.465 / 435.565
SWISSCUBE 27 Jun 03:13:29 03:18:14 58° 258° (WSW) 03:23:00 437.505
KKS-1 27 Jun 03:20:16 03:24:08 31° 61° (ENE) 03:28:01 437.445
JAS-2 27 Jun 03:31:22 03:37:16 53° 296° (WNW) 03:42:33 435.910
ITUPSAT 1 27 Jun 03:39:10 03:43:43 40° 263° (W) 03:48:17 437.325
BEESAT 27 Jun 03:39:23 03:43:53 39° 262° (W) 03:48:25 436.000
PCSat 27 Jun 03:56:21 04:01:32 48° 121° (ESE) 04:06:46 145.827
STARS 27 Jun 03:57:07 04:01:05 35° 63° (ENE) 04:05:05 437.465
BEESAT 3 27 Jun 03:57:15 04:00:17 22° 119° (ESE) 04:03:21 437.485
Cosmos 2499 27 Jun 04:03:36 04:09:11 18° 35° (NE) 04:14:41 435.465 / 435.565
Oscar 19 27 Jun 04:06:11 04:11:13 57° 294° (WNW) 04:16:14 437.125/150
Cosmos 2491 27 Jun 04:07:05 04:14:58 36° 303° (WNW) 04:22:52 435.465 / 435.565
Gurwin Techsat 1B 27 Jun 04:08:42 04:14:04 81° 106° (ESE) 04:19:25 435.225
BUGSAT 1 27 Jun 04:13:47 04:14:46 11° 311° (NW) 04:15:45 437.445
CUBESAT XI-V 27 Jun 04:21:04 04:24:20 19° 54° (NE) 04:27:36 437.345
ITAMSAT 1 27 Jun 04:24:35 04:29:41 48° 99° (E) 04:34:43 435.822/435.867
AIST 1 27 Jun 04:26:59 04:30:58 37° 69° (ENE) 04:34:56
BEESAT 2 27 Jun 04:31:16 04:34:35 26° 121° (ESE) 04:37:56 435.950
MOZHAYETS 4 27 Jun 04:33:32 04:38:11 82° 255° (WSW) 04:42:53
AO-7 27 Jun 04:36:37 04:44:03 33° 93° (E) 04:51:25 29.400- 29.500
AO-85 27 Jun 04:39:46 04:44:14 31° 15° (NNE) 04:48:22 145.980
O/OREOS (USA 219) 27 Jun 04:40:51 04:45:19 70° 117° (ESE) 04:49:48 437.305
GONETS M04 27 Jun 04:51:32 04:59:10 32° 55° (NE) 05:06:46
KKS-1 27 Jun 04:56:21 05:00:36 45° 261° (W) 05:04:53 437.445
SWISSCUBE 27 Jun 04:56:27 04:57:06 10° 279° (W) 04:57:44 437.505
Cosmos 2504 27 Jun 05:03:55 05:09:02 17° 293° (WNW) 05:14:06 435.465 / 435.565
JAS-2 27 Jun 05:17:34 05:21:00 16° 321° (NW) 05:24:16 435.910
STARS 27 Jun 05:33:24 05:37:28 37° 263° (W) 05:41:33 437.465
BEESAT 3 27 Jun 05:33:40 05:37:36 73° 320° (NW) 05:41:35 437.485
PCSat 27 Jun 05:39:43 05:45:00 50° 323° (NW) 05:50:19 145.827
Oscar 19 27 Jun 05:46:50 05:49:36 15° 315° (NW) 05:52:21 437.125/150
Gurwin Techsat 1B 27 Jun 05:49:19 05:53:32 24° 307° (NW) 05:57:45 435.225
CUBESAT XI-V 27 Jun 05:56:26 06:01:09 90° 187° (S) 06:05:54 437.345
Cosmos 2499 27 Jun 05:56:39 06:05:10 46° 63° (ENE) 06:13:20 435.465 / 435.565
ITAMSAT 1 27 Jun 06:04:17 06:09:05 37° 300° (WNW) 06:13:51 435.822/435.867
AIST 1 27 Jun 06:04:45 06:08:31 31° 270° (W) 06:12:17
HORYU 2 27 Jun 06:05:21 06:09:24 32° 96° (E) 06:13:26 437.375
BEESAT 2 27 Jun 06:08:13 06:12:10 63° 322° (NW) 06:16:10 435.950
Cosmos 2491 27 Jun 06:11:08 06:15:18 14° 333° (NNW) 06:19:28 435.465 / 435.565
MOZHAYETS 4 27 Jun 06:13:38 06:16:08 14° 276° (W) 06:18:39
Cubesat XI-IV 27 Jun 06:20:29 06:21:33 11° 80° (E) 06:22:38 437.490
AO-85 27 Jun 06:20:34 06:25:26 73° 40° (NE) 06:29:51 145.980
O/OREOS (USA 219) 27 Jun 06:21:21 06:25:09 26° 320° (NW) 06:28:58 437.305
AO-7 27 Jun 06:29:15 06:37:40 80° 296° (WNW) 06:46:03 29.400- 29.500
CUSAT 1 27 Jun 06:35:39 06:36:44 10° 75° (ENE) 06:37:49 437.405
AIST 2 27 Jun 06:36:49 06:40:26 30° 122° (ESE) 06:44:04 435.215
STRAND 1 27 Jun 06:37:27 06:41:57 31° 58° (ENE) 06:46:28 437.568
GONETS M04 27 Jun 06:48:24 06:57:10 86° 260° (W) 07:05:55
CUTE-I 27 Jun 06:53:18 06:57:09 20° 87° (E) 07:00:59 437.470
BEESAT 3 27 Jun 07:12:31 07:15:53 26° 342° (NNW) 07:19:15 437.485
BRITE-PL 27 Jun 07:23:11 07:27:05 35° 96° (E) 07:30:54 437.365/2234.400
PCSat 27 Jun 07:25:03 07:29:35 26° 348° (NNW) 07:34:07 145.827
NOAA 15 27 Jun 07:26:22 07:31:21 41° 97° (E) 07:36:18 137.62
CUBESAT XI-V 27 Jun 07:36:19 07:39:14 16° 274° (W) 07:42:09 437.345
DOVE 4 27 Jun 07:36:28 07:38:38 14° 86° (E) 07:40:51 437.250
NOAA 18 27 Jun 07:39:04 07:44:20 42° 98° (E) 07:49:34 137.9125
HORYU 2 27 Jun 07:41:50 07:46:06 43° 295° (WNW) 07:50:21 437.375
HO-68 27 Jun 07:44:13 07:45:44 11° 75° (ENE) 07:47:15 435.675
ITAMSAT 1 27 Jun 07:46:12 07:47:14 11° 322° (NW) 07:48:16 435.822/435.867
BEESAT 2 27 Jun 07:47:21 07:50:41 25° 344° (NNW) 07:54:02 435.950
Cosmos 2499 27 Jun 07:50:01 07:58:44 61° 268° (W) 08:07:04 435.465 / 435.565
Cubesat XI-IV 27 Jun 07:57:36 08:02:54 54° 101° (E) 08:08:11 437.490
AO-85 27 Jun 08:01:38 08:05:28 26° 242° (WSW) 08:09:02 145.980
O/OREOS (USA 219) 27 Jun 08:04:46 08:06:09 11° 344° (NNW) 08:07:32 437.305
GOMX 1 27 Jun 08:04:50 08:08:49 42° 98° (E) 08:12:51 467.674
PRISM 27 Jun 08:06:14 08:09:52 30° 62° (ENE) 08:13:30 437.425
LilacSat-2 27 Jun 08:07:30 08:11:23 70° 103° (ESE) 08:15:16 437.200
CUSAT 1 27 Jun 08:10:36 08:17:38 44° 94° (E) 08:23:31 437.405
AIST 2 27 Jun 08:14:38 08:18:44 59° 323° (NW) 08:22:52 435.215
STRAND 1 27 Jun 08:15:51 08:20:55 56° 259° (WSW) 08:26:02 437.568
Cosmos 2491 27 Jun 08:16:46 08:17:35 10° 8° (N) 08:18:25 435.465 / 435.565
DANDE 27 Jun 08:18:25 08:25:34 33° 86° (E) 08:32:03 436.750
AO-7 27 Jun 08:22:29 08:29:29 31° 320° (NW) 08:36:28 29.400- 29.500
CANX-2 27 Jun 08:27:36 08:29:57 14° 85° (E) 08:32:17 2200.000
CUTE-I 27 Jun 08:32:30 08:37:57 88° 284° (WNW) 08:43:20 437.470
CINEMA 3 27 Jun 08:42:44 08:46:03 20° 90° (E) 08:49:28 145.822/145.860
GONETS M04 27 Jun 08:46:06 08:52:52 26° 284° (WNW) 08:59:37
CUTE 1.7 + AOD 2 27 Jun 08:47:24 08:50:29 19° 89° (E) 08:53:32 437.475
BEESAT 3 27 Jun 08:51:36 08:54:41 21° 6° (N) 08:57:45 437.485
SEEDS 27 Jun 08:54:27 08:57:12 17° 87° (E) 08:59:56 437.485
BRITE-PL 27 Jun 09:01:50 09:05:37 33° 297° (WNW) 09:09:21 437.365/2234.400
NOAA 15 27 Jun 09:06:15 09:11:12 42° 298° (WNW) 09:16:07 137.62
ANTELSAT 27 Jun 09:08:21 09:10:45 15° 50° (NE) 09:13:12 437.575/2403.000
PCSat 27 Jun 09:10:02 09:14:37 26° 14° (NNE) 09:19:11 145.827
DOVE 4 27 Jun 09:12:45 09:17:00 88° 96° (E) 09:21:25 437.250
NOAA 18 27 Jun 09:19:49 09:25:04 45° 299° (WNW) 09:30:18 137.9125
HORYU 2 27 Jun 09:21:17 09:21:37 10° 316° (NW) 09:21:57 437.375
BEESAT 2 27 Jun 09:26:30 09:29:39 22° 8° (N) 09:32:49 435.950
HO-68 27 Jun 09:28:33 09:35:28 46° 98° (E) 09:42:21 435.675
Oscar 11 27 Jun 09:37:25 09:39:16 12° 84° (E) 09:41:06 145.826/435.025
AAUSAT CUBESAT 2 27 Jun 09:37:31 09:40:58 24° 92° (E) 09:44:22 437.432
Cubesat XI-IV 27 Jun 09:37:59 09:42:50 35° 301° (WNW) 09:47:39 437.490
UWE-3 27 Jun 09:41:00 09:44:15 19° 88° (E) 09:47:31 435.000/436.395/437.385
PRISM 27 Jun 09:41:08 09:45:05 41° 261° (W) 09:49:03 437.425
FUNcube-1 27 Jun 09:42:36 09:44:48 13° 84° (E) 09:47:01 145.935
LilacSat-2 27 Jun 09:42:38 09:45:18 18° 302° (WNW) 09:47:57 437.200
GOMX 1 27 Jun 09:43:16 09:46:51 28° 298° (WNW) 09:50:28 467.674
Cosmos 2499 27 Jun 09:44:39 09:50:02 18° 292° (WNW) 09:55:18 435.465 / 435.565
O/OREOS (USA 219) 27 Jun 09:47:13 09:47:44 10° 11° (N) 09:48:14 437.305
CUSAT 1 27 Jun 09:52:24 09:59:44 53° 291° (WNW) 10:05:43 437.405
AIST 2 27 Jun 09:54:29 09:57:57 25° 346° (NNW) 10:01:26 435.215
TIGRISAT 27 Jun 09:58:33 10:02:22 31° 61° (ENE) 10:06:17 435.000
DANDE 27 Jun 09:59:31 10:07:58 81° 285° (WNW) 10:15:25 436.750
STRAND 1 27 Jun 10:00:05 10:01:16 11° 280° (W) 10:02:27 437.568
CANX-2 27 Jun 10:02:08 10:06:29 89° 105° (ESE) 10:10:47 2200.000
UNISAT 6 27 Jun 10:03:01 10:06:57 35° 63° (ENE) 10:11:00 437.425
COMPASS 1 27 Jun 10:09:45 10:13:55 55° 100° (E) 10:18:02 437.405
M-CUBED/EXP-1 PRIME 27 Jun 10:10:52 10:13:41 20° 100° (E) 10:16:39 437.505
Cosmos 2491 27 Jun 10:12:55 10:19:12 21° 42° (NE) 10:25:25 435.465 / 435.565
CUTE-I 27 Jun 10:13:20 10:17:22 22° 309° (NW) 10:21:25 437.470
AO-7 27 Jun 10:15:06 10:19:49 17° 346° (NNW) 10:24:33 29.400- 29.500
CINEMA 3 27 Jun 10:19:14 10:23:38 68° 288° (WNW) 10:28:13 145.822/145.860
CUTE 1.7 + AOD 2 27 Jun 10:22:30 10:26:48 68° 288° (WNW) 10:31:03 437.475
JAS-2 27 Jun 10:24:12 10:27:52 15° 38° (NE) 10:31:21 435.910
CUBEBUG 2 27 Jun 10:26:08 10:30:37 57° 101° (E) 10:35:12 437.445
SEEDS 27 Jun 10:29:10 10:33:27 77° 288° (WNW) 10:37:42 437.485
BEESAT 3 27 Jun 10:29:35 10:33:18 37° 29° (NNE) 10:37:01 437.485
NANOSAT C BR1 27 Jun 10:35:54 10:38:40 17° 54° (NE) 10:41:26 145.865
ISS 27 Jun 10:37:45 10:39:15 13° 145° (SE) 10:40:45 145.825
QB50P1 27 Jun 10:37:52 10:40:46 19° 55° (NE) 10:43:42 145.935-145.965
POPSAT HIP 1 27 Jun 10:40:50 10:43:49 19° 56° (NE) 10:46:50 437.405
ANTELSAT 27 Jun 10:42:25 10:46:44 72° 70° (ENE) 10:51:11 437.575/2403.000
NOAA 15 27 Jun 10:47:54 10:49:46 12° 320° (NW) 10:51:37 137.62
HUMSAT D 27 Jun 10:49:49 10:52:28 16° 87° (E) 10:55:05 437.325/437.525
DOVE 4 27 Jun 10:51:33 10:54:14 17° 305° (NW) 10:56:58 437.250
QB50P2 27 Jun 10:52:15 10:55:39 24° 59° (ENE) 10:59:04 145.880/145.840
PCSat 27 Jun 10:53:47 10:59:09 54° 39° (NE) 11:04:28 145.827
POLYITAN 1 27 Jun 10:54:51 10:58:16 25° 59° (ENE) 11:01:42 437.675
DUCHIFAT 1 27 Jun 10:56:30 10:59:48 23° 59° (ENE) 11:03:07 145.980
ZACube-1 27 Jun 10:58:53 11:03:21 58° 101° (E) 11:07:52 437.345
NOAA 18 27 Jun 11:01:59 11:04:31 13° 321° (NW) 11:07:03 137.9125
BEESAT 2 27 Jun 11:04:32 11:08:23 42° 31° (NNE) 11:12:12 435.950
AUBIESAT-1 27 Jun 11:06:40 11:10:22 54° 109° (ESE) 11:14:19 437.475
Oscar 11 27 Jun 11:11:47 11:16:11 77° 104° (ESE) 11:20:33 145.826/435.025
AAUSAT CUBESAT 2 27 Jun 11:12:39 11:16:43 50° 292° (WNW) 11:20:45 437.432
HO-68 27 Jun 11:16:24 11:23:22 54° 300° (WNW) 11:30:18 435.675
UWE-3 27 Jun 11:16:41 11:21:12 75° 288° (WNW) 11:25:50 435.000/436.395/437.385
FUNcube-1 27 Jun 11:17:17 11:21:48 78° 103° (ESE) 11:26:22 145.935
Cubesat XI-IV 27 Jun 11:20:54 11:21:29 10° 323° (NW) 11:22:05 437.490
O/OREOS (USA 219) 27 Jun 11:25:26 11:28:54 21° 36° (NE) 11:32:22 437.305
AIST 2 27 Jun 11:34:13 11:37:36 23° 10° (N) 11:41:00 435.215
TIGRISAT 27 Jun 11:34:50 11:38:58 43° 262° (W) 11:43:13 435.000
DELFI C3 27 Jun 11:36:03 11:40:06 68° 102° (ESE) 11:44:04 145.870
CUSAT 1 27 Jun 11:38:52 11:43:00 16° 311° (NW) 11:46:42 437.405
CANX-2 27 Jun 11:38:59 11:41:48 17° 305° (NW) 11:44:34 2200.000
UNISAT 6 27 Jun 11:39:38 11:43:41 38° 263° (W) 11:47:51 437.425
M-CUBED/EXP-1 PRIME 27 Jun 11:44:54 11:48:30 56° 297° (WNW) 11:52:24 437.505
DANDE 27 Jun 11:44:57 11:51:49 28° 306° (NW) 11:57:57 436.750
COMPASS 1 27 Jun 11:45:48 11:49:13 24° 300° (WNW) 11:52:36 437.405
ESTCUBE 1 27 Jun 11:53:51 11:56:20 14° 86° (E) 11:58:49 437.505/2401.250
BUGSAT 1 27 Jun 11:57:44 12:01:28 38° 65° (ENE) 12:05:13 437.445
CINEMA 3 27 Jun 11:57:48 12:00:05 14° 308° (NW) 12:02:26 145.822/145.860
CUTE 1.7 + AOD 2 27 Jun 11:59:46 12:01:55 14° 309° (NW) 12:04:02 437.475
CUBEBUG 2 27 Jun 12:03:14 12:07:00 26° 300° (WNW) 12:10:51 437.445
AISAT 27 Jun 12:04:23 12:06:03 12° 84° (E) 12:07:42 437.250
JAS-2 27 Jun 12:04:36 12:11:29 43° 60° (ENE) 12:17:45 435.910
AO-7 27 Jun 12:04:50 12:09:32 17° 14° (NNE) 12:14:14 29.400- 29.500
SEEDS 27 Jun 12:06:08 12:08:30 15° 307° (NW) 12:10:52 437.485
BEESAT 3 27 Jun 12:07:17 12:11:10 54° 230° (SW) 12:15:02 437.485
YUBILEINY 27 Jun 12:08:08 12:13:57 20° 70° (ENE) 12:19:47 435.215
Cosmos 2491 27 Jun 12:09:40 12:18:18 60° 70° (ENE) 12:26:54 435.465 / 435.565
NANOSAT C BR1 27 Jun 12:09:42 12:13:53 85° 255° (WSW) 12:18:08 145.865
QB50P1 27 Jun 12:11:53 12:16:06 78° 257° (WSW) 12:20:20 145.935-145.965
ISS 27 Jun 12:12:02 12:15:01 33° 164° (SSE) 12:18:00 145.825
Oscar 19 27 Jun 12:13:52 12:17:29 20° 51° (NE) 12:21:06 437.125/150
POPSAT HIP 1 27 Jun 12:14:59 12:19:11 75° 257° (WSW) 12:23:25 437.405
ANTELSAT 27 Jun 12:20:56 12:23:59 18° 272° (W) 12:27:06 437.575/2403.000
Gurwin Techsat 1B 27 Jun 12:21:19 12:23:54 14° 43° (NE) 12:26:30 435.225
HUMSAT D 27 Jun 12:24:20 12:28:41 84° 284° (WNW) 12:33:00 437.325/437.525
QB50P2 27 Jun 12:27:05 12:31:13 55° 259° (W) 12:35:23 145.880/145.840
DX 1 27 Jun 12:28:43 12:31:12 15° 87° (E) 12:33:42 434.975-435.025
POLYITAN 1 27 Jun 12:29:43 12:33:50 54° 259° (W) 12:38:00 437.675
DUCHIFAT 1 27 Jun 12:31:06 12:35:12 57° 258° (WSW) 12:39:22 145.980
RS-15 27 Jun 12:32:16 12:42:27 39° 109° (ESE) 12:53:05 29.354- 29.394
ZACube-1 27 Jun 12:35:40 12:39:23 26° 301° (WNW) 12:43:08 437.345
PCSat 27 Jun 12:37:23 12:42:32 44° 240° (WSW) 12:47:37 145.827
50 SAT 27 Jun 12:38:04 12:40:58 21° 92° (E) 12:43:50 437.505
AUBIESAT-1 27 Jun 12:41:41 12:44:40 23° 306° (NW) 12:47:49 437.475
BEESAT 2 27 Jun 12:42:27 12:46:18 45° 232° (SW) 12:50:07 435.950
Oscar 11 27 Jun 12:48:43 12:51:52 20° 304° (NW) 12:55:00 145.826/435.025
AAUSAT CUBESAT 2 27 Jun 12:50:42 12:51:18 10° 312° (NW) 12:51:54 437.432
CUBEBUG 1 27 Jun 12:53:59 12:57:52 31° 95° (E) 13:01:45 437.445
FUNcube-1 27 Jun 12:54:19 12:57:37 20° 304° (WNW) 13:00:55 145.935
UWE-3 27 Jun 12:54:20 12:57:01 16° 307° (NW) 12:59:44 435.000/436.395/437.385
VELOX 1 27 Jun 12:58:26 13:02:24 32° 96° (E) 13:06:21 145.980
O/OREOS (USA 219) 27 Jun 13:04:29 13:09:00 84° 59° (ENE) 13:13:30 437.305
HO-68 27 Jun 13:04:53 13:09:43 20° 324° (NW) 13:14:32 435.675
DELFI C3 27 Jun 13:11:41 13:14:34 19° 303° (WNW) 13:17:25 145.870
AIST 2 27 Jun 13:12:53 13:16:56 48° 33° (NNE) 13:20:59 435.215
M-CUBED/EXP-1 PRIME 27 Jun 13:21:20 13:22:27 11° 316° (NW) 13:23:37 437.505
ESTCUBE 1 27 Jun 13:29:19 13:33:53 86° 106° (ESE) 13:38:23 437.505/2401.250
BUGSAT 1 27 Jun 13:33:25 13:36:57 29° 265° (W) 13:40:30 437.445
DANDE 27 Jun 13:35:47 13:37:17 11° 330° (NNW) 13:38:45 436.750
AISAT 27 Jun 13:38:56 13:43:21 74° 104° (ESE) 13:47:44 437.250
TISAT 1 27 Jun 13:41:06 13:43:12 13° 86° (E) 13:45:16 437.305
UKube-1 27 Jun 13:46:15 13:50:30 55° 101° (ESE) 13:54:45 .
ISS 27 Jun 13:47:59 13:51:07 43° 184° (S) 13:54:15 145.825
NANOSAT C BR1 27 Jun 13:48:22 13:50:20 13° 275° (W) 13:52:18 145.865
JAS-2 27 Jun 13:49:00 13:56:25 59° 259° (W) 14:03:09 435.910
SPROUT 27 Jun 13:50:19 13:54:28 47° 99° (E) 13:58:36 437.525
QB50P1 27 Jun 13:51:00 13:52:38 12° 275° (W) 13:54:16 145.935-145.965
Oscar 19 27 Jun 13:51:00 13:56:09 82° 72° (ENE) 14:01:20 437.125/150
AO-7 27 Jun 13:52:54 13:59:52 31° 40° (NE) 14:06:50 29.400- 29.500
POPSAT HIP 1 27 Jun 13:54:23 13:55:46 11° 276° (W) 13:57:09 437.405
Gurwin Techsat 1B 27 Jun 13:57:39 14:02:46 50° 65° (ENE) 14:07:55 435.225
YUBILEINY 27 Jun 14:00:31 14:09:08 70° 95° (E) 14:17:52 435.215
HUMSAT D 27 Jun 14:01:02 14:03:42 16° 306° (NW) 14:06:21 437.325/437.525
Cosmos 2504 27 Jun 14:03:29 14:10:24 31° 78° (ENE) 14:17:39 435.465 / 435.565
DX 1 27 Jun 14:03:41 14:08:03 88° 286° (WNW) 14:12:24 434.975-435.025
Cosmos 2491 27 Jun 14:06:54 14:14:59 45° 274° (W) 14:23:02 435.465 / 435.565
50 SAT 27 Jun 14:11:18 14:14:54 46° 292° (WNW) 14:18:27 437.505
ITAMSAT 1 27 Jun 14:11:26 14:15:58 31° 57° (ENE) 14:20:33 435.822/435.867
CUBEBUG 1 27 Jun 14:30:13 14:34:16 40° 295° (WNW) 14:38:18 437.445
VELOX 1 27 Jun 14:34:51 14:39:00 41° 295° (WNW) 14:43:06 145.980
RS-15 27 Jun 14:42:02 14:53:44 90° 312° (NW) 15:06:04 29.354- 29.394
O/OREOS (USA 219) 27 Jun 14:44:55 14:47:49 17° 259° (WSW) 14:50:45 437.305
AIST 2 27 Jun 14:51:31 14:55:25 40° 234° (SW) 14:59:18 435.215
HO-68 27 Jun 14:54:18 14:54:49 10° 350° (N) 14:55:20 435.675
SWISSCUBE 27 Jun 15:06:38 15:10:25 22° 91° (E) 15:14:10 437.505
ESTCUBE 1 27 Jun 15:07:00 15:10:09 19° 306° (NW) 15:13:18 437.505/2401.250
TISAT 1 27 Jun 15:15:17 15:19:31 87° 102° (ESE) 15:23:44 437.305
AISAT 27 Jun 15:16:09 15:19:25 21° 304° (NW) 15:22:40 437.250
UKube-1 27 Jun 15:22:46 15:26:19 25° 302° (WNW) 15:29:51 .
ISS 27 Jun 15:24:23 15:27:08 25° 203° (SSW) 15:29:53 145.825
SPROUT 27 Jun 15:26:36 15:30:16 28° 299° (WNW) 15:33:55 437.525
BEESAT 27 Jun 15:31:47 15:36:06 32° 95° (E) 15:40:23 436.000
ITUPSAT 1 27 Jun 15:32:00 15:36:19 32° 95° (E) 15:40:37 437.325
Oscar 19 27 Jun 15:32:24 15:36:08 20° 272° (W) 15:39:54 437.125/150
HORYU 2 27 Jun 15:36:11 15:38:40 15° 50° (NE) 15:41:10 437.375
Gurwin Techsat 1B 27 Jun 15:38:07 15:42:56 34° 265° (W) 15:47:48 435.225
JAS-2 27 Jun 15:38:45 15:42:46 15° 280° (W) 15:46:37 435.910
DX 1 27 Jun 15:40:52 15:43:41 17° 307° (NW) 15:46:29 434.975-435.025
AO-7 27 Jun 15:43:19 15:51:39 80° 65° (ENE) 16:00:04 29.400- 29.500
ITAMSAT 1 27 Jun 15:50:04 15:55:13 59° 258° (WSW) 16:00:25 435.822/435.867
Cosmos 2504 27 Jun 15:54:35 16:02:53 84° 282° (WNW) 16:11:46 435.465 / 435.565
NOAA 18 27 Jun 15:57:58 15:58:53 10° 34° (NE) 15:59:47 137.9125
YUBILEINY 27 Jun 15:58:35 16:06:39 40° 300° (WNW) 16:14:50 435.215
Cosmos 2491 27 Jun 16:06:54 16:09:22 11° 299° (WNW) 16:11:51 435.465 / 435.565
Cubesat XI-IV 27 Jun 16:12:52 16:13:56 11° 37° (NE) 16:15:01 437.490
MOZHAYETS 4 27 Jun 16:22:15 16:25:02 16° 86° (E) 16:27:50
HO-68 27 Jun 16:37:33 16:39:30 11° 16° (NNE) 16:41:28 435.675
KKS-1 27 Jun 16:40:07 16:43:33 21° 91° (E) 16:46:58 437.445
SWISSCUBE 27 Jun 16:43:53 16:48:41 67° 290° (WNW) 16:53:27 437.505
CUTE-I 27 Jun 16:44:57 16:48:07 16° 45° (NE) 16:51:18 437.470
SO-50 27 Jun 16:51:26 16:55:08 22° 117° (ESE) 16:58:49 436.795
TISAT 1 27 Jun 16:51:55 16:54:39 17° 306° (NW) 16:57:23 437.305
RS-15 27 Jun 16:55:53 17:07:35 57° 347° (NNW) 17:19:46 29.354- 29.394
BRITE-PL 27 Jun 17:04:12 17:07:32 19° 56° (NE) 17:10:42 437.365/2234.400
AIST 1 27 Jun 17:05:35 17:08:02 15° 82° (E) 17:10:31
BEESAT 27 Jun 17:09:27 17:14:04 47° 295° (WNW) 17:18:39 436.000
ITUPSAT 1 27 Jun 17:09:43 17:14:21 48° 295° (WNW) 17:18:58 437.325
HORYU 2 27 Jun 17:10:05 17:14:30 71° 71° (ENE) 17:18:58 437.375
NOAA 15 27 Jun 17:15:11 17:19:40 29° 56° (NE) 17:24:09 137.62
STARS 27 Jun 17:15:18 17:18:55 24° 93° (E) 17:22:32 437.465
LilacSat-2 27 Jun 17:24:00 17:26:14 15° 56° (NE) 17:28:29 437.200
NOAA 18 27 Jun 17:33:12 17:38:04 34° 57° (ENE) 17:42:58 137.9125
ITAMSAT 1 27 Jun 17:34:12 17:35:51 11° 279° (W) 17:37:30 435.822/435.867
AO-7 27 Jun 17:37:55 17:45:17 34° 267° (W) 17:52:43 29.400- 29.500
GOMX 1 27 Jun 17:43:45 17:46:50 19° 57° (ENE) 17:49:50 467.674
CUBESAT XI-V 27 Jun 17:46:53 17:49:27 14° 85° (E) 17:51:59 437.345
Cubesat XI-IV 27 Jun 17:47:47 17:52:38 36° 60° (ENE) 17:57:31 437.490
Cosmos 2504 27 Jun 17:50:39 17:57:46 29° 309° (NW) 18:05:13 435.465 / 435.565
MOZHAYETS 4 27 Jun 17:58:13 18:02:56 89° 106° (ESE) 18:07:35
YUBILEINY 27 Jun 18:02:01 18:06:44 15° 330° (NNW) 18:11:29 435.215
GONETS M04 27 Jun 18:04:27 18:11:01 25° 74° (ENE) 18:17:33
KKS-1 27 Jun 18:16:07 18:20:32 63° 291° (WNW) 18:24:56 437.445
HO-68 27 Jun 18:19:22 18:24:51 24° 42° (NE) 18:30:20 435.675
CUTE-I 27 Jun 18:21:58 18:27:14 60° 67° (ENE) 18:32:32 437.470
SWISSCUBE 27 Jun 18:22:52 18:25:42 16° 311° (NW) 18:28:29 437.505
SO-50 27 Jun 18:30:11 18:35:06 89° 139° (SE) 18:39:58 436.795
CUSAT 1 27 Jun 18:38:55 18:43:08 36° 63° (ENE) 18:46:25 437.405
BRITE-PL 27 Jun 18:40:36 18:45:34 88° 255° (WSW) 18:50:10 437.365/2234.400
AIST 1 27 Jun 18:40:44 18:45:04 82° 285° (WNW) 18:49:23
Cosmos 2499 27 Jun 18:43:10 18:50:02 28° 76° (ENE) 18:57:08 435.465 / 435.565
HORYU 2 27 Jun 18:48:22 18:51:33 19° 270° (W) 18:54:48 437.375
DOVE 4 27 Jun 18:48:34 18:52:18 30° 63° (ENE) 18:55:58 437.250
BEESAT 27 Jun 18:49:08 18:50:50 12° 316° (NW) 18:52:30 436.000
ITUPSAT 1 27 Jun 18:49:22 18:51:10 12° 316° (NW) 18:52:56 437.325
DANDE 27 Jun 18:50:46 18:56:06 30° 56° (NE) 19:00:14 436.750
STARS 27 Jun 18:51:17 18:55:35 54° 292° (WNW) 18:59:53 437.465
NOAA 15 27 Jun 18:53:51 18:59:08 66° 257° (WSW) 19:04:25 137.62
LilacSat-2 27 Jun 18:56:14 19:00:02 84° 256° (WSW) 19:03:53 437.200
RS-15 27 Jun 19:10:24 19:22:26 61° 20° (NNE) 19:34:42 29.354- 29.394
NOAA 18 27 Jun 19:13:08 19:18:32 58° 258° (WSW) 19:23:59 137.9125
GOMX 1 27 Jun 19:20:00 19:24:33 79° 257° (WSW) 19:28:51 467.674
CUBESAT XI-V 27 Jun 19:22:55 19:27:37 83° 108° (ESE) 19:32:14 437.345
CANX-2 27 Jun 19:26:48 19:30:22 26° 60° (ENE) 19:33:57 2200.000
Cubesat XI-IV 27 Jun 19:27:24 19:32:36 51° 260° (W) 19:37:52 437.490
M-CUBED/EXP-1 PRIME 27 Jun 19:31:56 19:33:29 13° 46° (NE) 19:35:02 437.505
COMPASS 1 27 Jun 19:33:38 19:36:21 17° 55° (NE) 19:39:05 437.405
MOZHAYETS 4 27 Jun 19:36:17 19:39:32 19° 306° (NW) 19:42:47
CUTE 1.7 + AOD 2 27 Jun 19:46:39 19:50:30 33° 63° (ENE) 19:54:22 437.475
CINEMA 3 27 Jun 19:51:27 19:55:18 38° 65° (ENE) 19:59:13 145.822/145.860
Cosmos 2504 27 Jun 19:51:45 19:55:04 12° 339° (NNW) 19:58:25 435.465 / 435.565
SEEDS 27 Jun 19:52:41 19:56:22 29° 62° (ENE) 20:00:05 437.485
KKS-1 27 Jun 19:54:09 19:56:20 14° 311° (NW) 19:58:29 437.445
CUBEBUG 2 27 Jun 19:56:26 19:59:26 19° 55° (NE) 20:02:29 437.445
GONETS M04 27 Jun 19:57:54 20:06:36 83° 99° (E) 20:15:21
CUTE-I 27 Jun 20:03:01 20:07:40 29° 268° (W) 20:12:20 437.470
HO-68 27 Jun 20:04:26 20:11:32 71° 65° (ENE) 20:18:43 435.675
YUBILEINY 27 Jun 20:08:19 20:08:55 10° 5° (N) 20:09:30 435.215
SO-50 27 Jun 20:11:37 20:16:07 35° 339° (NNW) 20:20:33 436.795
STRAND 1 27 Jun 20:18:57 20:23:30 30° 93° (E) 20:28:00 437.568
AIST 1 27 Jun 20:21:01 20:23:25 14° 304° (WNW) 20:25:49
CUSAT 1 27 Jun 20:21:26 20:24:59 25° 273° (W) 20:27:53 437.405
BRITE-PL 27 Jun 20:21:45 20:24:41 16° 273° (W) 20:27:30 437.365/2234.400
DOVE 4 27 Jun 20:25:58 20:29:59 39° 263° (W) 20:33:56 437.250
AUBIESAT-1 27 Jun 20:26:08 20:29:05 30° 57° (ENE) 20:32:06 437.475
ZACube-1 27 Jun 20:27:05 20:30:06 19° 55° (NE) 20:33:11 437.345
STARS 27 Jun 20:29:27 20:31:05 12° 313° (NW) 20:32:42 437.465
Cosmos 2499 27 Jun 20:33:37 20:42:07 90° 101° (E) 20:51:05 435.465 / 435.565
DANDE 27 Jun 20:33:42 20:39:25 53° 265° (W) 20:43:39 436.750
LilacSat-2 27 Jun 20:33:51 20:35:00 11° 275° (W) 20:36:11 437.200
AAUSAT CUBESAT 2 27 Jun 20:34:20 20:38:17 40° 66° (ENE) 20:42:14 437.432
NOAA 15 27 Jun 20:37:32 20:39:58 13° 277° (W) 20:42:25 137.62
Oscar 11 27 Jun 20:38:20 20:41:52 24° 59° (ENE) 20:45:24 145.826/435.025
FUNcube-1 27 Jun 20:44:40 20:48:06 24° 59° (ENE) 20:51:37 145.935
UWE-3 27 Jun 20:44:52 20:48:40 33° 63° (ENE) 20:52:35 435.000/436.395/437.385
DELFI C3 27 Jun 20:55:32 20:58:16 18° 56° (ENE) 21:01:00 145.870
NOAA 18 27 Jun 20:58:35 21:00:26 12° 279° (W) 21:02:18 137.9125
CUBESAT XI-V 27 Jun 21:01:08 21:04:28 20° 306° (NW) 21:07:47 437.345
GOMX 1 27 Jun 21:01:28 21:03:22 12° 275° (W) 21:05:14 467.674
CANX-2 27 Jun 21:01:48 21:06:00 52° 260° (W) 21:10:15 2200.000
M-CUBED/EXP-1 PRIME 27 Jun 21:04:17 21:07:33 88° 66° (ENE) 21:10:55 437.505
COMPASS 1 27 Jun 21:07:08 21:11:23 88° 257° (WSW) 21:15:39 437.405
PRISM 27 Jun 21:16:00 21:18:41 17° 89° (E) 21:21:20 437.425
CUTE 1.7 + AOD 2 27 Jun 21:22:16 21:26:18 39° 263° (W) 21:30:22 437.475
RS-15 27 Jun 21:23:38 21:35:53 80° 230° (SW) 21:48:13 29.354- 29.394
SEEDS 27 Jun 21:27:52 21:31:57 44° 262° (W) 21:36:05 437.485
CINEMA 3 27 Jun 21:28:54 21:32:34 30° 265° (W) 21:36:19 145.822/145.860
CUBEBUG 2 27 Jun 21:31:24 21:35:35 76° 256° (WSW) 21:39:56 437.445
HUMSAT D 27 Jun 21:47:39 21:51:12 27° 61° (ENE) 21:54:49 437.325/437.525
Cosmos 2504 27 Jun 21:51:41 21:53:50 11° 13° (NNE) 21:56:00 435.465 / 435.565
HO-68 27 Jun 21:53:29 21:59:51 34° 267° (W) 22:06:17 435.675
SO-50 27 Jun 21:53:36 21:57:45 27° 3° (N) 22:01:49 436.795
GONETS M04 27 Jun 21:56:51 22:04:31 33° 304° (NW) 22:12:15
STRAND 1 27 Jun 21:57:56 22:03:00 55° 294° (WNW) 22:08:01 437.568
AUBIESAT-1 27 Jun 22:00:44 22:03:39 28° 257° (WSW) 22:06:37 437.475
ZACube-1 27 Jun 22:01:41 22:05:55 78° 256° (WSW) 22:10:18 437.345
YUBILEINY 27 Jun 22:04:40 22:10:40 19° 39° (NE) 22:16:39 435.215
AAUSAT CUBESAT 2 27 Jun 22:10:10 22:13:53 30° 266° (W) 22:17:37 437.432
Oscar 11 27 Jun 22:13:25 22:17:43 58° 259° (WSW) 22:22:03 145.826/435.025
FUNcube-1 27 Jun 22:19:54 22:24:04 56° 259° (W) 22:28:23 145.935
UWE-3 27 Jun 22:21:11 22:25:07 38° 264° (W) 22:29:11 435.000/436.395/437.385
AO-85 27 Jun 22:21:57 22:26:02 22° 116° (ESE) 22:30:00 145.980
CUBEBUG 1 27 Jun 22:23:18 22:25:23 13° 50° (NE) 22:27:26 437.445
DELFI C3 27 Jun 22:28:37 22:32:40 77° 257° (WSW) 22:36:45 145.870
VELOX 1 27 Jun 22:28:42 22:31:03 14° 50° (NE) 22:33:25 145.980
Cosmos 2499 27 Jun 22:29:03 22:36:32 32° 306° (NW) 22:44:17 435.465 / 435.565
ANTELSAT 27 Jun 22:29:25 22:29:58 10° 81° (E) 22:30:31 437.575/2403.000
COMPASS 1 27 Jun 22:45:26 22:47:37 14° 275° (W) 22:49:48 437.405
PRISM 27 Jun 22:50:23 22:54:29 72° 290° (WNW) 22:58:33 437.425
ESTCUBE 1 27 Jun 22:59:39 23:03:40 32° 62° (ENE) 23:07:42 437.505/2401.250
AISAT 27 Jun 23:07:42 23:11:24 27° 59° (ENE) 23:15:06 437.250
CUBEBUG 2 27 Jun 23:11:35 23:13:05 12° 277° (W) 23:14:34 437.445
UKube-1 27 Jun 23:13:00 23:16:15 21° 56° (NE) 23:19:30 .
SPROUT 27 Jun 23:16:50 23:19:31 17° 54° (NE) 23:22:12 437.525
TIGRISAT 27 Jun 23:18:44 23:22:35 25° 92° (E) 23:26:27 435.000
50 SAT 27 Jun 23:22:35 23:25:52 30° 64° (ENE) 23:29:10 437.505
HUMSAT D 27 Jun 23:22:35 23:26:39 48° 261° (W) 23:30:48 437.325/437.525
UNISAT 6 27 Jun 23:23:29 23:27:30 29° 93° (E) 23:31:34 437.425
Cosmos 2491 27 Jun 23:29:49 23:33:40 14° 64° (ENE) 23:37:30 435.465 / 435.565
DX 1 27 Jun 23:30:30 23:34:23 32° 62° (ENE) 23:38:16 434.975-435.025
SO-50 27 Jun 23:34:40 23:39:16 43° 27° (NNE) 23:43:44 436.795
RS-15 27 Jun 23:36:40 23:46:45 32° 256° (WSW) 23:56:49 29.354- 29.394
STRAND 1 27 Jun 23:38:28 23:41:12 15° 315° (NW) 23:43:55 437.568
ZACube-1 27 Jun 23:41:19 23:43:02 12° 277° (W) 23:44:46 437.345
Cosmos 2504 27 Jun 23:44:50 23:51:38 23° 45° (NE) 23:58:22 435.465 / 435.565
NANOSAT C BR1 27 Jun 23:49:47 23:50:01 10° 83° (E) 23:50:16 145.865
QB50P1 27 Jun 23:51:20 23:52:37 11° 84° (E) 23:53:54 145.935-145.965
POPSAT HIP 1 27 Jun 23:54:14 23:55:48 12° 84° (E) 23:57:22 437.405
CUBEBUG 1 27 Jun 23:56:35 00:00:54 65° 70° (ENE) 00:05:13 437.445
AO-85 28 Jun 00:00:38 00:06:02 85° 136° (SE) 00:11:08 145.980
GONETS M04 28 Jun 00:01:13 00:05:00 13° 335° (NNW) 00:08:47
YUBILEINY 28 Jun 00:01:22 00:10:01 54° 67° (ENE) 00:18:38 435.215
VELOX 1 28 Jun 00:02:25 00:06:48 69° 71° (ENE) 00:11:12 145.980
ANTELSAT 28 Jun 00:03:04 00:07:39 59° 101° (ESE) 00:12:16 437.575/2403.000
QB50P2 28 Jun 00:05:30 00:08:08 16° 87° (E) 00:10:47 145.880/145.840
DELFI C3 28 Jun 00:06:59 00:08:16 11° 276° (W) 00:09:33 145.870
POLYITAN 1 28 Jun 00:08:05 00:10:46 16° 88° (E) 00:13:29 437.675
DUCHIFAT 1 28 Jun 00:08:54 00:11:19 15° 87° (E) 00:13:42 145.980
PRISM 28 Jun 00:27:05 00:29:08 14° 309° (NW) 00:31:10 437.425
Cosmos 2499 28 Jun 00:29:28 00:33:21 13° 336° (NNW) 00:37:17 435.465 / 435.565
ESTCUBE 1 28 Jun 00:36:01 00:40:23 45° 261° (W) 00:44:46 437.505/2401.250
TISAT 1 28 Jun 00:39:03 00:42:32 26° 60° (ENE) 00:46:02 437.305
AISAT 28 Jun 00:43:22 00:47:41 52° 259° (W) 00:52:00 437.250
SWISSCUBE 28 Jun 00:45:15 00:47:34 14° 46° (NE) 00:49:54 437.505
UKube-1 28 Jun 00:47:36 00:51:55 70° 256° (WSW) 00:56:15 .
SPROUT 28 Jun 00:50:38 00:54:54 89° 79° (E) 00:59:12 437.525
JAS-2 28 Jun 00:52:39 00:55:48 15° 80° (E) 00:58:48 435.910
TIGRISAT 28 Jun 00:55:04 00:59:35 57° 291° (WNW) 01:04:09 435.000
50 SAT 28 Jun 00:56:07 00:59:31 33° 264° (W) 01:02:57 437.505
